| time (UTC) | temp F | wind direction | speed MPH | gust MPH | rain 1hr in | rain 24hr in | rain mn in | humidity % | barometer mb |
| 20260905133716 | 0 | 0.0 | 0.0 | 0.00 | 0.00 | 0.00 | 1019.4 | ||
| 20260905133211 | 0 | 0.0 | 0.0 | 0.00 | 0.00 | 0.00 | 1019.4 | ||
| 20260905132710 | 52 | 307 | 0.0 | 0.0 | 0.00 | 0.00 | 0.00 | 99 | 1019.3 |
| 20260905132205 | 52 | 307 | 0.0 | 0.0 | 0.00 | 0.00 | 0.00 | 99 | 1019.5 |
| 20260905131700 | 0 | 0.0 | 0.0 | 0.00 | 0.00 | 0.00 | 1019.5 | ||
| 20260905131155 | 0 | 0.0 | 0.0 | 0.00 | 0.00 | 0.00 | 1019.3 | ||
| 20260905130650 | 0 | 0.0 | 0.0 | 0.00 | 0.00 | 0.00 | 1019.2 | ||
| 20260905130150 | 53 | 336 | 0.0 | 0.0 | 0.00 | 0.00 | 0.00 | 99 | 1019.3 |
| 20260905125644 | 53 | 336 | 0.0 | 0.0 | 0.00 | 0.00 | 0.00 | 99 | 1019.3 |
| 20260905125140 | 53 | 335 | 0.0 | 0.0 | 0.00 | 0.00 | 0.00 | 99 | 1019.2 |
| 20260905124636 | 53 | 325 | 0.0 | 0.0 | 0.00 | 0.00 | 0.00 | 99 | 1019.3 |
| 20260905124132 | 53 | 325 | 0.0 | 0.0 | 0.00 | 0.00 | 0.00 | 99 | 1019.1 |
| 20260905123627 | 53 | 336 | 0.0 | 0.0 | 0.00 | 0.00 | 0.00 | 99 | 1019.2 |
| 20260905123124 | 53 | 340 | 0.0 | 0.0 | 0.00 | 0.00 | 0.00 | 99 | 1019.1 |
| 20260905122618 | 53 | 340 | 0.0 | 0.0 | 0.00 | 0.00 | 0.00 | 99 | 1019.2 |
| 20260905122119 | 0 | 0.0 | 0.0 | 0.00 | 0.00 | 0.00 | 1019.2 | ||
| 20260905121613 | 53 | 338 | 0.0 | 0.0 | 0.00 | 0.00 | 0.00 | 99 | 1019.1 |
| 20260905121109 | 53 | 337 | 0.0 | 0.0 | 0.00 | 0.00 | 0.00 | 99 | 1019.1 |
| 20260905120608 | 53 | 337 | 0.0 | 0.0 | 0.00 | 0.00 | 0.00 | 99 | 1019.0 |
| 20260905115556 | 53 | 343 | 0.0 | 0.0 | 0.00 | 0.00 | 0.00 | 99 | 1018.9 |
| 20260905115051 | 53 | 332 | 0.0 | 0.0 | 0.00 | 0.00 | 0.00 | 99 | 1019.1 |
| 20260905114550 | 53 | 332 | 0.0 | 0.0 | 0.00 | 0.00 | 0.00 | 99 | 1019.1 |
| 20260905114049 | 53 | 330 | 0.0 | 0.0 | 0.00 | 0.00 | 0.00 | 99 | 1018.9 |
| 20260905113544 | 53 | 330 | 0.0 | 0.0 | 0.00 | 0.00 | 0.00 | 99 | 1018.9 |
| 20260905113040 | 53 | 331 | 0.0 | 0.0 | 0.00 | 0.00 | 0.00 | 99 | 1019.0 |
| 20260905112535 | 53 | 331 | 0.0 | 0.0 | 0.00 | 0.00 | 0.00 | 99 | 1019.2 |
| 20260905112030 | 53 | 342 | 0.0 | 0.0 | 0.00 | 0.00 | 0.00 | 99 | 1018.9 |
| 20260905111525 | 54 | 344 | 0.0 | 0.0 | 0.00 | 0.00 | 0.00 | 99 | 1019.0 |
| 20260905111024 | 0 | 0.0 | 0.0 | 0.00 | 0.00 | 0.00 | 1018.8 | ||
| 20260905110524 | 54 | 337 | 0.0 | 0.0 | 0.00 | 0.00 | 0.00 | 99 | 1018.9 |
| 20260905110019 | 54 | 337 | 0.0 | 0.0 | 0.00 | 0.00 | 0.00 | 99 | 1018.7 |
| 20260905105514 | 54 | 348 | 0.0 | 0.0 | 0.00 | 0.00 | 0.00 | 99 | 1018.9 |
| 20260905105013 | 54 | 120 | 2.0 | 3.0 | 0.00 | 0.00 | 0.00 | 99 | 1018.7 |
| 20260905104509 | 54 | 339 | 0.0 | 0.0 | 0.00 | 0.00 | 0.00 | 99 | 1018.9 |
| 20260905104008 | 54 | 339 | 0.0 | 0.0 | 0.00 | 0.00 | 0.00 | 99 | 1018.6 |
| 20260905103503 | 54 | 339 | 0.0 | 0.0 | 0.00 | 0.00 | 0.00 | 99 | 1018.8 |
| 20260905103000 | 54 | 339 | 0.0 | 0.0 | 0.00 | 0.00 | 0.00 | 99 | 1018.8 |
| 20260905102455 | 54 | 339 | 0.0 | 0.0 | 0.00 | 0.00 | 0.00 | 99 | 1018.8 |
| 20260905101951 | 54 | 0 | 0.0 | 0.0 | 0.00 | 0.00 | 0.00 | 99 | 1018.7 |
| 20260905101449 | 54 | 220 | 1.0 | 1.0 | 0.00 | 0.00 | 0.00 | 99 | 1018.8 |
| 20260905100948 | 54 | 290 | 0.0 | 1.0 | 0.00 | 0.00 | 0.00 | 99 | 1018.7 |
| 20260905100444 | 54 | 290 | 0.0 | 1.0 | 0.00 | 0.00 | 0.00 | 99 | 1018.7 |
| 20260905095944 | 54 | 0 | 0.0 | 0.0 | 0.00 | 0.00 | 0.00 | 99 | 1018.6 |
| 20260905095444 | 54 | 344 | 0.0 | 0.0 | 0.00 | 0.00 | 0.00 | 99 | 1018.6 |
| 20260905094939 | 54 | 344 | 0.0 | 0.0 | 0.00 | 0.00 | 0.00 | 99 | 1018.9 |
| 20260905094435 | 54 | 344 | 0.0 | 0.0 | 0.00 | 0.00 | 0.00 | 99 | 1018.8 |
| 20260905093933 | 54 | 344 | 0.0 | 0.0 | 0.00 | 0.00 | 0.00 | 99 | 1018.5 |
| 20260905093429 | 54 | 344 | 0.0 | 0.0 | 0.00 | 0.00 | 0.00 | 99 | 1018.6 |
| 20260905092925 | 54 | 344 | 0.0 | 0.0 | 0.00 | 0.00 | 0.00 | 99 | 1018.7 |
| 20260905092419 | 54 | 344 | 0.0 | 0.0 | 0.00 | 0.00 | 0.00 | 99 | 1018.7 |
| 20260905091914 | 54 | 344 | 0.0 | 0.0 | 0.00 | 0.00 | 0.00 | 99 | 1018.7 |
| 20260905091409 | 54 | 345 | 0.0 | 0.0 | 0.00 | 0.00 | 0.00 | 99 | 1018.5 |
| 20260905090908 | 54 | 346 | 0.0 | 0.0 | 0.00 | 0.00 | 0.00 | 99 | 1018.7 |
| 20260905090404 | 54 | 322 | 0.0 | 0.0 | 0.00 | 0.00 | 0.00 | 99 | 1018.7 |
| 20260905085903 | 54 | 321 | 0.0 | 0.0 | 0.00 | 0.00 | 0.00 | 99 | 1018.4 |
| 20260905085403 | 54 | 327 | 0.0 | 0.0 | 0.00 | 0.00 | 0.00 | 99 | 1018.5 |
| 20260905084859 | 54 | 307 | 0.0 | 0.0 | 0.00 | 0.00 | 0.00 | 99 | 1018.6 |
| 20260905084357 | 54 | 334 | 0.0 | 0.0 | 0.00 | 0.00 | 0.00 | 99 | 1018.5 |
| 20260905083853 | 54 | 334 | 0.0 | 0.0 | 0.00 | 0.00 | 0.00 | 99 | 1018.5 |
| 20260905083348 | 55 | 292 | 0.0 | 1.0 | 0.00 | 0.00 | 0.00 | 99 | 1018.3 |
| 20260905082844 | 55 | 196 | 3.0 | 3.0 | 0.00 | 0.00 | 0.00 | 99 | 1018.5 |
| 20260905082340 | 54 | 10 | 0.0 | 0.0 | 0.00 | 0.00 | 0.00 | 99 | 1018.3 |
| 20260905081835 | 54 | 330 | 0.0 | 0.0 | 0.00 | 0.00 | 0.00 | 99 | 1018.3 |
| 20260905081329 | 54 | 330 | 0.0 | 0.0 | 0.00 | 0.00 | 0.00 | 99 | 1018.1 |
| 20260905080829 | 54 | 325 | 0.0 | 0.0 | 0.00 | 0.00 | 0.00 | 99 | 1018.5 |
| 20260905080324 | 55 | 331 | 0.0 | 0.0 | 0.00 | 0.00 | 0.00 | 99 | 1018.3 |
| 20260905075822 | 55 | 323 | 0.0 | 0.0 | 0.00 | 0.00 | 0.00 | 99 | 1018.4 |
| 20260905075322 | 55 | 334 | 0.0 | 0.0 | 0.00 | 0.00 | 0.00 | 99 | 1018.3 |
| 20260905074821 | 55 | 356 | 0.0 | 0.0 | 0.00 | 0.00 | 0.00 | 99 | 1018.2 |
| 20260905074317 | 55 | 330 | 0.0 | 0.0 | 0.00 | 0.00 | 0.00 | 99 | 1018.1 |
| 20260905073812 | 55 | 22 | 1.0 | 1.0 | 0.00 | 0.00 | 0.00 | 99 | 1018.3 |
| 20260905073307 | 55 | 346 | 0.0 | 0.0 | 0.00 | 0.00 | 0.00 | 99 | 1018.5 |
| 20260905072802 | 55 | 334 | 0.0 | 0.0 | 0.00 | 0.00 | 0.00 | 99 | 1018.5 |
| 20260905072257 | 55 | 337 | 0.0 | 0.0 | 0.00 | 0.00 | 0.00 | 99 | 1018.4 |
| 20260905071754 | 55 | 328 | 0.0 | 0.0 | 0.00 | 0.00 | 0.00 | 99 | 1018.4 |
| 20260905071249 | 55 | 328 | 0.0 | 0.0 | 0.00 | 0.00 | 0.00 | 99 | 1018.2 |
| 20260905070744 | 55 | 337 | 0.0 | 0.0 | 0.00 | 0.00 | 0.00 | 99 | 1018.4 |
| 20260905070240 | 55 | 329 | 0.0 | 0.0 | 0.00 | 0.00 | 0.00 | 99 | 1018.2 |
| 20260905065739 | 55 | 354 | 0.0 | 0.0 | 0.00 | 0.09 | 0.09 | 99 | 1018.2 |
| 20260905065233 | 55 | 322 | 0.0 | 0.0 | 0.00 | 0.09 | 0.09 | 99 | 1018.2 |
| 20260905064728 | 55 | 322 | 0.0 | 0.0 | 0.00 | 0.09 | 0.09 | 99 | 1018.1 |
| 20260905064224 | 54 | 322 | 0.0 | 0.0 | 0.00 | 0.09 | 0.09 | 99 | 1018.1 |
| 20260905063722 | 55 | 322 | 0.0 | 0.0 | 0.00 | 0.09 | 0.09 | 99 | 1018.0 |
| 20260905063218 | 55 | 322 | 0.0 | 0.0 | 0.00 | 0.09 | 0.09 | 99 | 1018.0 |
| 20260905062714 | 54 | 322 | 0.0 | 0.0 | 0.00 | 0.09 | 0.09 | 99 | 1017.9 |
| 20260905062213 | 54 | 322 | 0.0 | 0.0 | 0.00 | 0.09 | 0.09 | 99 | 1017.9 |
| 20260905061708 | 54 | 321 | 0.0 | 0.0 | 0.00 | 0.09 | 0.09 | 99 | 1017.9 |
| 20260905061202 | 55 | 322 | 0.0 | 0.0 | 0.00 | 0.09 | 0.09 | 99 | 1017.9 |
| 20260905060657 | 54 | 322 | 0.0 | 0.0 | 0.00 | 0.09 | 0.09 | 99 | 1018.1 |
| 20260905060154 | 54 | 322 | 0.0 | 0.0 | 0.00 | 0.09 | 0.09 | 99 | 1017.9 |
| 20260905055652 | 54 | 322 | 0.0 | 0.0 | 0.00 | 0.09 | 0.09 | 99 | 1017.9 |
| 20260905055148 | 54 | 322 | 0.0 | 0.0 | 0.00 | 0.09 | 0.09 | 99 | 1017.9 |
| 20260905054643 | 55 | 322 | 0.0 | 0.0 | 0.00 | 0.09 | 0.09 | 99 | 1017.9 |
| 20260905054139 | 55 | 322 | 0.0 | 0.0 | 0.00 | 0.09 | 0.09 | 99 | 1018.1 |
| 20260905053638 | 55 | 322 | 0.0 | 0.0 | 0.00 | 0.09 | 0.09 | 99 | 1018.1 |
| 20260905053134 | 55 | 322 | 0.0 | 0.0 | 0.00 | 0.09 | 0.09 | 99 | 1018.2 |
| 20260905052633 | 55 | 322 | 0.0 | 0.0 | 0.00 | 0.09 | 0.09 | 99 | 1018.0 |
| 20260905052128 | 55 | 322 | 0.0 | 0.0 | 0.00 | 0.09 | 0.09 | 99 | 1018.0 |
| 20260905051623 | 55 | 322 | 0.0 | 0.0 | 0.00 | 0.09 | 0.09 | 99 | 1018.2 |
| 20260905051120 | 55 | 318 | 0.0 | 0.0 | 0.00 | 0.09 | 0.09 | 99 | 1018.0 |
| 20260905050615 | 55 | 319 | 0.0 | 0.0 | 0.00 | 0.09 | 0.09 | 99 | 1018.0 |
| 20260905050107 | 55 | 305 | 0.0 | 0.0 | 0.00 | 0.09 | 0.09 | 99 | 1018.0 |
| 20260905045606 | 55 | 317 | 0.0 | 0.0 | 0.00 | 0.09 | 0.09 | 99 | 1018.3 |
| 20260905045102 | 55 | 254 | 1.0 | 1.0 | 0.00 | 0.09 | 0.09 | 99 | 1018.2 |
| 20260905044602 | 55 | 347 | 0.0 | 0.0 | 0.00 | 0.09 | 0.09 | 99 | 1018.1 |
| 20260905044056 | 55 | 336 | 0.0 | 0.0 | 0.00 | 0.09 | 0.09 | 99 | 1017.9 |
| 20260905043555 | 55 | 329 | 0.0 | 0.0 | 0.00 | 0.09 | 0.09 | 99 | 1018.3 |
| 20260905043051 | 55 | 302 | 0.0 | 0.0 | 0.00 | 0.09 | 0.09 | 99 | 1018.1 |
| 20260905042549 | 55 | 330 | 0.0 | 0.0 | 0.00 | 0.09 | 0.09 | 99 | 1018.0 |
| 20260905042045 | 55 | 331 | 0.0 | 0.0 | 0.00 | 0.09 | 0.09 | 99 | 1017.9 |
| 20260905041540 | 55 | 331 | 0.0 | 0.0 | 0.00 | 0.09 | 0.09 | 99 | 1017.9 |
| 20260905041036 | 55 | 331 | 0.0 | 0.0 | 0.00 | 0.09 | 0.09 | 99 | 1018.0 |
| 20260905040535 | 55 | 330 | 0.0 | 0.0 | 0.00 | 0.09 | 0.09 | 99 | 1017.8 |
| 20260905040034 | 55 | 331 | 0.0 | 0.0 | 0.00 | 0.09 | 0.09 | 99 | 1017.8 |
| 20260905035529 | 55 | 331 | 0.0 | 0.0 | 0.00 | 0.09 | 0.09 | 99 | 1017.8 |
| 20260905035026 | 55 | 330 | 0.0 | 0.0 | 0.00 | 0.09 | 0.09 | 99 | 1017.7 |
| 20260905034522 | 55 | 352 | 0.0 | 0.0 | 0.00 | 0.09 | 0.09 | 99 | 1017.8 |
| 20260905034021 | 56 | 352 | 0.0 | 0.0 | 0.00 | 0.09 | 0.09 | 99 | 1017.7 |
| 20260905033521 | 56 | 352 | 0.0 | 0.0 | 0.00 | 0.09 | 0.09 | 99 | 1017.8 |
| 20260905033017 | 56 | 352 | 0.0 | 0.0 | 0.00 | 0.09 | 0.09 | 99 | 1017.6 |
| 20260905032512 | 56 | 2 | 0.0 | 0.0 | 0.00 | 0.09 | 0.09 | 99 | 1017.5 |
| 20260905032007 | 56 | 349 | 0.0 | 0.0 | 0.00 | 0.09 | 0.09 | 99 | 1017.4 |
| 20260905031503 | 57 | 353 | 0.0 | 0.0 | 0.00 | 0.09 | 0.09 | 99 | 1017.3 |
| 20260905030957 | 57 | 329 | 0.0 | 0.0 | 0.00 | 0.09 | 0.09 | 99 | 1017.2 |
| 20260905030453 | 57 | 329 | 0.0 | 0.0 | 0.00 | 0.09 | 0.09 | 99 | 1017.2 |
| 20260905025951 | 57 | 329 | 0.0 | 0.0 | 0.00 | 0.09 | 0.09 | 99 | 1017.2 |
| 20260905025447 | 57 | 330 | 0.0 | 0.0 | 0.00 | 0.09 | 0.09 | 99 | 1017.1 |
| 20260905024943 | 57 | 329 | 0.0 | 0.0 | 0.00 | 0.09 | 0.09 | 99 | 1017.1 |
| 20260905024443 | 58 | 353 | 0.0 | 0.0 | 0.00 | 0.09 | 0.09 | 99 | 1016.9 |
| 20260905023939 | 58 | 336 | 0.0 | 0.0 | 0.00 | 0.09 | 0.09 | 99 | 1016.7 |
| 20260905023434 | 58 | 344 | 0.0 | 0.0 | 0.00 | 0.09 | 0.09 | 99 | 1016.8 |
| 20260905022933 | 59 | 6 | 0.0 | 0.0 | 0.00 | 0.09 | 0.09 | 99 | 1016.7 |
| 20260905022428 | 59 | 6 | 0.0 | 0.0 | 0.00 | 0.09 | 0.09 | 99 | 1016.8 |
| 20260905021924 | 59 | 6 | 0.0 | 0.0 | 0.00 | 0.09 | 0.09 | 99 | 1016.8 |
| 20260905021424 | 59 | 6 | 0.0 | 0.0 | 0.00 | 0.09 | 0.09 | 99 | 1016.8 |
| 20260905020919 | 59 | 359 | 0.0 | 0.0 | 0.00 | 0.09 | 0.09 | 99 | 1016.6 |
| 20260905020418 | 60 | 340 | 0.0 | 0.0 | 0.00 | 0.09 | 0.09 | 99 | 1016.8 |
| 20260905015913 | 60 | 342 | 0.0 | 0.0 | 0.00 | 0.09 | 0.09 | 99 | 1016.7 |
| 20260905015411 | 61 | 340 | 0.0 | 0.0 | 0.00 | 0.09 | 0.09 | 99 | 1016.6 |
| 20260905014910 | 61 | 337 | 0.0 | 0.0 | 0.00 | 0.09 | 0.09 | 99 | 1016.7 |
| 20260905014406 | 61 | 337 | 0.0 | 0.0 | 0.00 | 0.09 | 0.09 | 99 | 1016.7 |
| 20260905013901 | 61 | 338 | 0.0 | 0.0 | 0.00 | 0.09 | 0.09 | 98 | 1016.6 |
| 20260905013357 | 62 | 348 | 0.0 | 0.0 | 0.00 | 0.09 | 0.09 | 98 | 1016.6 |
| 20260905012852 | 62 | 343 | 0.0 | 0.0 | 0.00 | 0.09 | 0.09 | 98 | 1016.5 |
| 20260905012347 | 62 | 343 | 0.0 | 0.0 | 0.00 | 0.09 | 0.09 | 98 | 1016.6 |
| 20260905011844 | 63 | 327 | 0.0 | 0.0 | 0.00 | 0.09 | 0.09 | 97 | 1016.4 |
| 20260905011339 | 63 | 338 | 0.0 | 0.0 | 0.00 | 0.09 | 0.09 | 96 | 1016.4 |
| 20260905010835 | 63 | 338 | 0.0 | 0.0 | 0.00 | 0.09 | 0.09 | 96 | 1016.2 |
| 20260905010330 | 63 | 339 | 0.0 | 0.0 | 0.00 | 0.09 | 0.09 | 94 | 1016.2 |
| 20260905005826 | 63 | 349 | 0.0 | 0.0 | 0.00 | 0.09 | 0.09 | 93 | 1016.3 |
| 20260905005321 | 63 | 348 | 0.0 | 0.0 | 0.00 | 0.09 | 0.09 | 95 | 1016.3 |
| 20260905004816 | 64 | 330 | 0.0 | 0.0 | 0.00 | 0.09 | 0.09 | 95 | 1016.2 |
| 20260905004311 | 64 | 351 | 0.0 | 0.0 | 0.00 | 0.09 | 0.09 | 92 | 1016.1 |
| 20260905003806 | 64 | 338 | 0.0 | 0.0 | 0.00 | 0.09 | 0.09 | 92 | 1016.0 |
| 20260905003302 | 64 | 335 | 1.0 | 1.0 | 0.00 | 0.09 | 0.09 | 89 | 1016.2 |
| 20260905002757 | 65 | 329 | 0.0 | 0.0 | 0.00 | 0.09 | 0.09 | 90 | 1015.8 |
| 20260905002257 | 65 | 334 | 2.0 | 2.0 | 0.00 | 0.09 | 0.09 | 87 | 1016.1 |
| 20260905001752 | 64 | 309 | 0.0 | 0.0 | 0.00 | 0.09 | 0.09 | 94 | 1016.0 |
| 20260905001252 | 64 | 324 | 0.0 | 0.0 | 0.00 | 0.09 | 0.09 | 97 | 1016.0 |
| 20260905000747 | 63 | 339 | 0.0 | 0.0 | 0.00 | 0.09 | 0.09 | 97 | 1015.9 |
| 20260905000243 | 63 | 353 | 1.0 | 1.0 | 0.00 | 0.09 | 0.09 | 97 | 1016.1 |
| 20260904235738 | 62 | 356 | 0.0 | 0.0 | 0.00 | 0.09 | 0.09 | 97 | 1016.2 |
| 20260904235232 | 62 | 351 | 1.0 | 1.0 | 0.00 | 0.09 | 0.09 | 98 | 1016.0 |
| 20260904234727 | 63 | 355 | 1.0 | 1.0 | 0.00 | 0.09 | 0.09 | 99 | 1015.9 |
| 20260904234222 | 63 | 350 | 0.0 | 0.0 | 0.00 | 0.09 | 0.09 | 99 | 1015.9 |
| 20260904233718 | 62 | 356 | 0.0 | 1.0 | 0.00 | 0.09 | 0.09 | 99 | 1015.9 |
| 20260904233214 | 62 | 354 | 1.0 | 1.0 | 0.00 | 0.09 | 0.09 | 99 | 1015.8 |
| 20260904232711 | 62 | 354 | 0.0 | 1.0 | 0.00 | 0.09 | 0.09 | 99 | 1015.9 |
| 20260904232207 | 63 | 1 | 0.0 | 0.0 | 0.00 | 0.09 | 0.09 | 99 | 1016.0 |
| 20260904231702 | 63 | 356 | 1.0 | 2.0 | 0.00 | 0.09 | 0.09 | 99 | 1015.8 |
| 20260904231157 | 63 | 353 | 0.0 | 0.0 | 0.00 | 0.09 | 0.09 | 99 | 1015.8 |
| 20260904230656 | 63 | 8 | 1.0 | 1.0 | 0.00 | 0.09 | 0.09 | 99 | 1015.7 |
| 20260904230151 | 63 | 350 | 0.0 | 0.0 | 0.00 | 0.09 | 0.09 | 99 | 1015.7 |
| 20260904225650 | 63 | 350 | 0.0 | 0.0 | 0.00 | 0.09 | 0.09 | 99 | 1015.8 |
| 20260904225145 | 63 | 350 | 0.0 | 0.0 | 0.00 | 0.09 | 0.09 | 98 | 1016.0 |
| 20260904224639 | 63 | 335 | 0.0 | 1.0 | 0.00 | 0.09 | 0.09 | 98 | 1015.9 |
| 20260904224139 | 63 | 316 | 0.0 | 0.0 | 0.00 | 0.09 | 0.09 | 98 | 1015.9 |
| 20260904223633 | 63 | 316 | 0.0 | 0.0 | 0.00 | 0.09 | 0.09 | 99 | 1015.7 |
| 20260904223128 | 63 | 316 | 0.0 | 0.0 | 0.00 | 0.09 | 0.09 | 99 | 1015.5 |
| 20260904222625 | 62 | 315 | 0.0 | 0.0 | 0.00 | 0.09 | 0.09 | 99 | 1015.7 |
| 20260904222120 | 62 | 327 | 0.0 | 0.0 | 0.00 | 0.09 | 0.09 | 99 | 1015.7 |
| 20260904221620 | 62 | 346 | 0.0 | 0.0 | 0.00 | 0.09 | 0.09 | 99 | 1015.5 |
| 20260904221119 | 61 | 344 | 0.0 | 0.0 | 0.07 | 0.09 | 0.09 | 98 | 1015.7 |
| 20260904220614 | 61 | 308 | 0.0 | 0.0 | 0.24 | 0.09 | 0.09 | 98 | 1015.6 |
| 20260904220110 | 61 | 338 | 0.0 | 0.0 | 0.45 | 0.07 | 0.07 | 96 | 1015.8 |
| 20260904215610 | 62 | 351 | 1.0 | 1.0 | 0.28 | 0.05 | 0.05 | 93 | 1015.8 |
| 20260904215106 | 67 | 46 | 3.0 | 3.0 | 0.00 | 0.00 | 0.00 | 77 | 1015.6 |
| 20260904214601 | 68 | 148 | 0.0 | 1.0 | 0.00 | 0.00 | 0.00 | 68 | 1015.5 |
| 20260904214056 | 69 | 301 | 0.0 | 1.0 | 0.00 | 0.00 | 0.00 | 65 | 1015.4 |
| 20260904213554 | 69 | 206 | 0.0 | 1.0 | 0.00 | 0.00 | 0.00 | 67 | 1015.2 |
| 20260904213051 | 71 | 311 | 1.0 | 1.0 | 0.00 | 0.00 | 0.00 | 62 | 1015.3 |
| 20260904212550 | 72 | 285 | 3.0 | 3.0 | 0.00 | 0.00 | 0.00 | 63 | 1015.1 |
| 20260904212046 | 70 | 231 | 3.0 | 5.0 | 0.00 | 0.00 | 0.00 | 62 | 1015.2 |
| 20260904211545 | 69 | 356 | 0.0 | 0.0 | 0.00 | 0.00 | 0.00 | 63 | 1015.4 |
| 20260904211041 | 70 | 268 | 3.0 | 5.0 | 0.00 | 0.00 | 0.00 | 64 | 1015.1 |
| 20260904210540 | 70 | 352 | 0.0 | 0.0 | 0.00 | 0.00 | 0.00 | 66 | 1015.3 |
| 20260904210036 | 70 | 355 | 1.0 | 2.0 | 0.00 | 0.00 | 0.00 | 65 | 1015.3 |
| 20260904205531 | 71 | 136 | 0.0 | 1.0 | 0.00 | 0.00 | 0.00 | 65 | 1014.9 |
| 20260904205028 | 71 | 303 | 1.0 | 2.0 | 0.00 | 0.00 | 0.00 | 64 | 1015.2 |
| 20260904204524 | 71 | 343 | 0.0 | 1.0 | 0.00 | 0.00 | 0.00 | 67 | 1014.9 |
| 20260904204019 | 72 | 14 | 2.0 | 2.0 | 0.00 | 0.00 | 0.00 | 65 | 1015.1 |
| 20260904203515 | 70 | 269 | 3.0 | 5.0 | 0.00 | 0.00 | 0.00 | 65 | 1014.9 |
| 20260904203011 | 71 | 78 | 2.0 | 3.0 | 0.00 | 0.00 | 0.00 | 65 | 1014.9 |
| 20260904202507 | 71 | 239 | 1.0 | 1.0 | 0.00 | 0.00 | 0.00 | 67 | 1014.8 |
| 20260904202003 | 70 | 70 | 1.0 | 2.0 | 0.00 | 0.00 | 0.00 | 70 | 1014.9 |
| 20260904201458 | 70 | 68 | 1.0 | 1.0 | 0.00 | 0.00 | 0.00 | 67 | 1015.0 |
| 20260904200954 | 70 | 208 | 3.0 | 3.0 | 0.00 | 0.00 | 0.00 | 68 | 1015.0 |
| 20260904200451 | 70 | 335 | 3.0 | 5.0 | 0.00 | 0.00 | 0.00 | 67 | 1014.6 |
| 20260904195947 | 70 | 4 | 2.0 | 2.0 | 0.00 | 0.00 | 0.00 | 69 | 1014.9 |
| 20260904195445 | 69 | 83 | 4.0 | 6.0 | 0.00 | 0.00 | 0.00 | 67 | 1015.0 |
| 20260904194944 | 70 | 221 | 3.0 | 3.0 | 0.00 | 0.00 | 0.00 | 67 | 1015.3 |
| 20260904194439 | 69 | 147 | 2.0 | 2.0 | 0.00 | 0.00 | 0.00 | 71 | 1015.2 |
| 20260904193934 | 69 | 0 | 1.0 | 2.0 | 0.00 | 0.00 | 0.00 | 68 | 1015.0 |
| 20260904193430 | 69 | 350 | 1.0 | 2.0 | 0.00 | 0.00 | 0.00 | 69 | 1015.2 |
| 20260904192925 | 69 | 0 | 0.0 | 1.0 | 0.00 | 0.00 | 0.00 | 69 | 1015.3 |
| 20260904192420 | 69 | 218 | 1.0 | 1.0 | 0.00 | 0.00 | 0.00 | 68 | 1015.1 |
| 20260904191916 | 69 | 17 | 2.0 | 3.0 | 0.00 | 0.00 | 0.00 | 68 | 1015.2 |
| 20260904191413 | 66 | 152 | 0.0 | 0.0 | 0.00 | 0.00 | 0.00 | 71 | 1015.2 |
| 20260904190909 | 66 | 246 | 1.0 | 1.0 | 0.00 | 0.00 | 0.00 | 69 | 1015.4 |
| 20260904190404 | 65 | 349 | 1.0 | 1.0 | 0.00 | 0.00 | 0.00 | 71 | 1015.3 |
| 20260904185901 | 65 | 334 | 0.0 | 0.0 | 0.00 | 0.00 | 0.00 | 74 | 1015.4 |
| 20260904185356 | 64 | 332 | 0.0 | 0.0 | 0.00 | 0.00 | 0.00 | 74 | 1015.4 |
| 20260904184855 | 64 | 318 | 0.0 | 1.0 | 0.00 | 0.00 | 0.00 | 74 | 1015.4 |
| 20260904184350 | 64 | 107 | 0.0 | 0.0 | 0.00 | 0.00 | 0.00 | 74 | 1015.4 |
| 20260904183846 | 64 | 314 | 0.0 | 0.0 | 0.00 | 0.00 | 0.00 | 74 | 1015.4 |
| 20260904183341 | 64 | 335 | 0.0 | 0.0 | 0.00 | 0.00 | 0.00 | 73 | 1015.3 |
| 20260904182836 | 63 | 316 | 0.0 | 1.0 | 0.00 | 0.00 | 0.00 | 76 | 1015.5 |
| 20260904182331 | 63 | 306 | 1.0 | 1.0 | 0.00 | 0.00 | 0.00 | 74 | 1015.3 |
| 20260904181826 | 64 | 317 | 0.0 | 0.0 | 0.00 | 0.00 | 0.00 | 75 | 1015.2 |
| 20260904181326 | 64 | 332 | 0.0 | 0.0 | 0.00 | 0.00 | 0.00 | 75 | 1015.4 |
| 20260904180822 | 65 | 193 | 2.0 | 2.0 | 0.00 | 0.00 | 0.00 | 73 | 1015.3 |
| 20260904180317 | 65 | 100 | 1.0 | 1.0 | 0.00 | 0.00 | 0.00 | 70 | 1015.4 |
| 20260904175816 | 63 | 207 | 0.0 | 0.0 | 0.00 | 0.00 | 0.00 | 74 | 1015.5 |
| 20260904175314 | 63 | 308 | 0.0 | 0.0 | 0.00 | 0.00 | 0.00 | 78 | 1015.6 |
| 20260904174809 | 61 | 320 | 0.0 | 0.0 | 0.00 | 0.00 | 0.00 | 82 | 1015.7 |
| 20260904174305 | 61 | 319 | 0.0 | 0.0 | 0.00 | 0.00 | 0.00 | 80 | 1015.8 |
| 20260904173801 | 61 | 224 | 0.0 | 1.0 | 0.00 | 0.00 | 0.00 | 80 | 1015.8 |
| 20260904173256 | 61 | 321 | 0.0 | 0.0 | 0.00 | 0.00 | 0.00 | 81 | 1015.7 |
| 20260904172752 | 61 | 5 | 0.0 | 0.0 | 0.00 | 0.00 | 0.00 | 81 | 1015.7 |
| 20260904172250 | 60 | 308 | 0.0 | 0.0 | 0.00 | 0.00 | 0.00 | 83 | 1015.7 |
| 20260904171746 | 60 | 315 | 0.0 | 0.0 | 0.00 | 0.00 | 0.00 | 83 | 1015.7 |
| 20260904171241 | 60 | 294 | 0.0 | 1.0 | 0.00 | 0.00 | 0.00 | 84 | 1015.6 |
| 20260904170738 | 59 | 334 | 0.0 | 0.0 | 0.00 | 0.00 | 0.00 | 86 | 1015.5 |
| 20260904170233 | 59 | 317 | 0.0 | 0.0 | 0.00 | 0.00 | 0.00 | 86 | 1015.8 |
| 20260904165732 | 60 | 339 | 0.0 | 0.0 | 0.00 | 0.00 | 0.00 | 88 | 1015.6 |
| 20260904165227 | 60 | 339 | 0.0 | 0.0 | 0.00 | 0.00 | 0.00 | 88 | 1015.9 |
| 20260904164726 | 59 | 353 | 0.0 | 0.0 | 0.00 | 0.00 | 0.00 | 91 | 1015.7 |
| 20260904164221 | 59 | 353 | 0.0 | 0.0 | 0.00 | 0.00 | 0.00 | 91 | 1015.9 |
| 20260904163718 | 0 | 0.0 | 0.0 | 0.00 | 0.00 | 0.00 | 1015.7 | ||
| 20260904163213 | 0 | 0.0 | 0.0 | 0.00 | 0.00 | 0.00 | 1015.5 | ||
| 20260904162712 | 59 | 283 | 0.0 | 0.0 | 0.00 | 0.00 | 0.00 | 89 | 1015.8 |
| 20260904162207 | 59 | 283 | 0.0 | 0.0 | 0.00 | 0.00 | 0.00 | 89 | 1015.7 |
| 20260904161703 | 60 | 198 | 2.0 | 2.0 | 0.00 | 0.00 | 0.00 | 90 | 1015.6 |
| 20260904161157 | 59 | 133 | 1.0 | 1.0 | 0.00 | 0.00 | 0.00 | 90 | 1015.5 |
| 20260904160653 | 57 | 42 | 1.0 | 1.0 | 0.00 | 0.00 | 0.00 | 93 | 1015.6 |
| 20260904160143 | 0 | 0.0 | 0.0 | 0.00 | 0.00 | 0.00 | 1015.8 | ||
| 20260904155638 | 54 | 337 | 0.0 | 1.0 | 0.00 | 0.00 | 0.00 | 98 | 1015.7 |
| 20260904155132 | 54 | 337 | 0.0 | 1.0 | 0.00 | 0.00 | 0.00 | 98 | 1015.7 |
| 20260904154631 | 53 | 252 | 2.0 | 3.0 | 0.00 | 0.00 | 0.00 | 98 | 1016.1 |
| 20260904154130 | 53 | 214 | 2.0 | 2.0 | 0.00 | 0.00 | 0.00 | 98 | 1015.8 |
| 20260904153625 | 53 | 135 | 2.0 | 2.0 | 0.00 | 0.00 | 0.00 | 98 | 1015.9 |
| 20260904153121 | 53 | 296 | 1.0 | 1.0 | 0.00 | 0.00 | 0.00 | 98 | 1015.7 |
| 20260904152617 | 53 | 196 | 1.0 | 1.0 | 0.00 | 0.00 | 0.00 | 99 | 1015.5 |
| 20260904152113 | 53 | 322 | 0.0 | 0.0 | 0.00 | 0.00 | 0.00 | 99 | 1015.6 |
| 20260904151608 | 52 | 342 | 0.0 | 0.0 | 0.00 | 0.00 | 0.00 | 99 | 1015.4 |
| 20260904151106 | 52 | 349 | 0.0 | 0.0 | 0.00 | 0.00 | 0.00 | 99 | 1015.6 |
| 20260904150601 | 52 | 186 | 2.0 | 3.0 | 0.00 | 0.00 | 0.00 | 99 | 1015.5 |
| 20260904150056 | 52 | 272 | 0.0 | 1.0 | 0.00 | 0.00 | 0.00 | 99 | 1015.4 |
| 20260904145555 | 52 | 338 | 0.0 | 0.0 | 0.00 | 0.00 | 0.00 | 99 | 1015.4 |
| 20260904145051 | 52 | 30 | 1.0 | 1.0 | 0.00 | 0.00 | 0.00 | 99 | 1015.4 |
| 20260904144547 | 51 | 189 | 2.0 | 2.0 | 0.00 | 0.00 | 0.00 | 99 | 1015.4 |
| 20260904144042 | 51 | 314 | 0.0 | 0.0 | 0.00 | 0.00 | 0.00 | 99 | 1015.2 |
| 20260904143538 | 51 | 359 | 0.0 | 0.0 | 0.00 | 0.00 | 0.00 | 99 | 1015.1 |
| 20260904143035 | 51 | 206 | 3.0 | 3.0 | 0.00 | 0.00 | 0.00 | 99 | 1015.0 |
| 20260904142531 | 51 | 202 | 2.0 | 2.0 | 0.00 | 0.00 | 0.00 | 99 | 1015.1 |
| 20260904142026 | 51 | 341 | 0.0 | 0.0 | 0.00 | 0.00 | 0.00 | 99 | 1015.0 |
| 20260904141521 | 51 | 342 | 0.0 | 0.0 | 0.00 | 0.00 | 0.00 | 99 | 1014.7 |
| 20260904141017 | 51 | 297 | 0.0 | 0.0 | 0.00 | 0.00 | 0.00 | 99 | 1014.9 |
| 20260904140517 | 51 | 317 | 0.0 | 0.0 | 0.00 | 0.00 | 0.00 | 99 | 1014.7 |
| 20260904140016 | 51 | 314 | 0.0 | 0.0 | 0.00 | 0.00 | 0.00 | 99 | 1014.8 |
| 20260904135516 | 51 | 319 | 0.0 | 0.0 | 0.00 | 0.00 | 0.00 | 99 | 1014.7 |
| 20260904135012 | 51 | 302 | 0.0 | 0.0 | 0.00 | 0.00 | 0.00 | 99 | 1014.6 |
| 20260904134507 | 51 | 322 | 0.0 | 0.0 | 0.00 | 0.00 | 0.00 | 99 | 1014.4 |